�������l�o���
Date,Time,MP-1(��Sv/h),MP-2(��Sv/h),MP-3(��Sv/h),MP-4(��Sv/h),MP-5(��Sv/h),MP-6(��Sv/h),MP-7(��Sv/h),����,����(m/s),���J
2020/08/23,00:00,0.183,0.166,0.274,0.263,0.252,0.143,0.087,�k,2.0,��
2020/08/23,00:10,0.182,0.166,0.276,0.261,0.251,0.143,0.086,�k,1.4,��
2020/08/23,00:20,0.183,0.168,0.276,0.260,0.250,0.142,0.087,�k�k��,1.0,��
2020/08/23,00:30,0.184,0.167,0.274,0.265,0.249,0.143,0.085,�k�k��,2.0,��
2020/08/23,00:40,0.182,0.166,0.274,0.263,0.253,0.144,0.086,�k,1.0,��
2020/08/23,00:50,0.180,0.167,0.278,0.260,0.251,0.144,0.086,�k�k��,1.2,��
2020/08/23,01:00,0.182,0.168,0.277,0.262,0.248,0.142,0.086,�k,0.7,��
2020/08/23,01:10,0.183,0.167,0.275,0.263,0.250,0.143,0.086,�k,1.4,��
2020/08/23,01:20,0.182,0.166,0.278,0.261,0.250,0.144,0.086,�k,1.0,��
2020/08/23,01:30,0.182,0.168,0.278,0.261,0.251,0.144,0.086,�k,0.7,��
2020/08/23,01:40,0.184,0.168,0.275,0.263,0.247,0.143,0.086,�k,0.9,��
2020/08/23,01:50,0.183,0.166,0.273,0.263,0.251,0.143,0.086,�k�k��,2.5,��
2020/08/23,02:00,0.182,0.167,0.277,0.260,0.252,0.144,0.087,�k�k��,1.4,��
2020/08/23,02:10,0.183,0.168,0.276,0.261,0.250,0.144,0.086,�k�k��,2.8,��
2020/08/23,02:20,0.184,0.166,0.275,0.263,0.249,0.143,0.085,�k�k��,1.8,��
2020/08/23,02:30,0.182,0.166,0.277,0.263,0.252,0.143,0.086,�k�k��,2.2,��
2020/08/23,02:40,0.182,0.168,0.278,0.260,0.251,0.145,0.086,�k�k��,2.0,��
2020/08/23,02:50,0.182,0.168,0.275,0.263,0.249,0.144,0.086,�k,1.5,��
2020/08/23,03:00,0.183,0.167,0.274,0.264,0.250,0.143,0.086,�k,1.5,��
2020/08/23,03:10,0.182,0.166,0.278,0.261,0.253,0.143,0.086,�k,2.3,��
2020/08/23,03:20,0.181,0.168,0.277,0.259,0.251,0.143,0.087,�k�k��,2.4,��
2020/08/23,03:30,0.185,0.168,0.276,0.264,0.249,0.144,0.086,�k�k��,2.3,��
2020/08/23,03:40,0.182,0.166,0.277,0.263,0.250,0.143,0.086,�k�k��,3.2,��
2020/08/23,03:50,0.181,0.166,0.279,0.259,0.252,0.143,0.086,�k�k��,3.6,��
2020/08/23,04:00,0.181,0.168,0.275,0.262,0.250,0.143,0.086,�k�k��,2.6,��
2020/08/23,04:10,0.183,0.168,0.276,0.264,0.249,0.144,0.086,�k�k��,2.3,��
2020/08/23,04:20,0.182,0.166,0.278,0.261,0.251,0.143,0.086,�k�k��,2.1,��
2020/08/23,04:30,0.181,0.167,0.276,0.259,0.252,0.143,0.086,�k�k��,2.5,��
2020/08/23,04:40,0.182,0.168,0.274,0.262,0.250,0.144,0.086,�k�k��,2.7,��
2020/08/23,04:50,0.183,0.167,0.277,0.263,0.249,0.144,0.086,�k�k��,1.5,��
2020/08/23,05:00,0.181,0.166,0.277,0.261,0.254,0.142,0.086,�k�k��,3.3,��
2020/08/23,05:10,0.181,0.167,0.274,0.263,0.250,0.143,0.087,�k�k��,2.2,��
2020/08/23,05:20,0.183,0.167,0.275,0.265,0.247,0.144,0.086,�k,2.5,��
2020/08/23,05:30,0.183,0.166,0.278,0.262,0.251,0.143,0.086,�k�k��,3.1,��
2020/08/23,05:40,0.182,0.168,0.274,0.261,0.252,0.143,0.087,�k�k��,2.9,��
2020/08/23,05:50,0.181,0.169,0.274,0.263,0.249,0.144,0.087,�k�k��,2.4,��
2020/08/23,06:00,0.184,0.167,0.278,0.263,0.249,0.144,0.085,�k�k��,2.1,��
2020/08/23,06:10,0.183,0.165,0.277,0.261,0.253,0.143,0.087,�k�k��,2.7,��
2020/08/23,06:20,0.182,0.168,0.274,0.261,0.252,0.143,0.088,�k�k��,2.7,��
2020/08/23,06:30,0.182,0.168,0.276,0.264,0.249,0.143,0.086,�k�k��,2.6,��
2020/08/23,06:40,0.184,0.166,0.278,0.262,0.249,0.144,0.086,�k�k��,3.2,��
2020/08/23,06:50,0.183,0.166,0.277,0.260,0.253,0.143,0.086,�k��,3.4,��
2020/08/23,07:00,0.182,0.168,0.273,0.263,0.252,0.143,0.086,�k��,3.5,��
2020/08/23,07:10,0.181,0.168,0.277,0.264,0.249,0.144,0.087,�k�k��,2.4,��
2020/08/23,07:20,0.184,0.167,0.278,0.262,0.248,0.145,0.086,�k�k��,1.9,��
2020/08/23,07:30,0.183,0.166,0.276,0.261,0.250,0.145,0.085,�k�k��,2.2,��
2020/08/23,07:40,0.181,0.168,0.273,0.260,0.253,0.143,0.086,�k�k��,2.5,��
2020/08/23,07:50,0.181,0.167,0.275,0.264,0.251,0.143,0.087,�k��,1.9,��
2020/08/23,08:00,0.184,0.167,0.278,0.265,0.249,0.143,0.086,�k�k��,0.9,��
2020/08/23,08:10,0.184,0.166,0.276,0.262,0.249,0.144,0.086,�k��,0.7,��
2020/08/23,08:20,0.181,0.166,0.276,0.260,0.248,0.144,0.086,-,CALM,��
2020/08/23,08:30,0.181,0.166,0.273,0.260,0.249,0.143,0.086,�k�k��,1.3,��
2020/08/23,08:40,0.180,0.168,0.274,0.262,0.253,0.143,0.086,��,0.6,��
2020/08/23,08:50,0.183,0.168,0.278,0.264,0.252,0.143,0.086,�k�k��,1.1,��
2020/08/23,09:00,0.183,0.168,0.278,0.264,0.251,0.143,0.087,�k��,1.0,��
2020/08/23,09:10,0.182,0.166,0.275,0.260,0.249,0.143,0.086,���k��,0.7,��
2020/08/23,09:20,0.181,0.167,0.274,0.262,0.249,0.143,0.086,���k��,1.1,��
2020/08/23,09:30,0.181,0.167,0.274,0.260,0.249,0.143,0.085,��,0.7,��
2020/08/23,09:40,0.181,0.165,0.274,0.260,0.249,0.143,0.085,�k�k��,1.0,��
2020/08/23,09:50,0.181,0.166,0.273,0.261,0.249,0.144,0.085,�k�k��,0.8,��
2020/08/23,10:00,0.184,0.166,0.275,0.260,0.250,0.143,0.085,�k,0.7,��
2020/08/23,10:10,0.183,0.165,0.274,0.262,0.250,0.142,0.086,���k��,0.7,��
2020/08/23,10:20,0.183,0.166,0.274,0.261,0.249,0.143,0.085,���쓌,0.8,��
2020/08/23,10:30,0.182,0.166,0.276,0.261,0.250,0.143,0.085,-,CALM,��
2020/08/23,10:40,0.181,0.165,0.275,0.263,0.251,0.143,0.085,��,1.1,��
2020/08/23,10:50,0.181,0.167,0.275,0.261,0.251,0.143,0.086,��,1.8,��
2020/08/23,11:00,0.181,0.166,0.277,0.263,0.251,0.144,0.086,���쓌,2.1,��
2020/08/23,11:10,0.181,0.167,0.277,0.263,0.251,0.143,0.086,���쓌,1.6,��
2020/08/23,11:20,0.182,0.167,0.278,0.264,0.251,0.144,0.086,���쓌,2.1,��
2020/08/23,11:30,0.182,0.167,0.278,0.264,0.252,0.144,0.086,��,2.3,��
2020/08/23,11:40,0.182,0.169,0.277,0.262,0.251,0.145,0.086,���쓌,2.5,��
2020/08/23,11:50,0.182,0.168,0.277,0.264,0.250,0.145,0.086,���쓌,2.0,��
2020/08/23,12:00,0.182,0.167,0.276,0.264,0.249,0.143,0.086,���쓌,1.4,��
2020/08/23,12:10,0.182,0.168,0.276,0.262,0.250,0.143,0.086,�쓌,1.6,��
2020/08/23,12:20,0.182,0.168,0.276,0.263,0.251,0.143,0.086,��쓌,1.6,��
2020/08/23,12:30,0.182,0.168,0.276,0.264,0.252,0.144,0.086,�쓌,2.3,��
2020/08/23,12:40,0.183,0.167,0.277,0.263,0.252,0.144,0.086,��쓌,2.5,��
2020/08/23,12:50,0.182,0.167,0.277,0.264,0.251,0.144,0.087,�쓌,3.3,��
2020/08/23,13:00,0.183,0.168,0.278,0.264,0.250,0.145,0.087,���쓌,3.8,��
2020/08/23,13:10,0.182,0.168,0.278,0.264,0.251,0.144,0.087,���쓌,4.1,��
2020/08/23,13:20,0.182,0.168,0.275,0.264,0.251,0.143,0.086,���쓌,3.3,��
2020/08/23,13:30,0.182,0.168,0.278,0.262,0.251,0.144,0.086,�쓌,3.1,��
2020/08/23,13:40,0.184,0.169,0.276,0.263,0.251,0.144,0.086,�쓌,3.2,��
2020/08/23,13:50,0.183,0.166,0.277,0.261,0.249,0.144,0.086,�쓌,1.5,��
2020/08/23,14:00,0.182,0.167,0.277,0.261,0.250,0.145,0.085,��쓌,1.6,��
2020/08/23,14:10,0.182,0.167,0.276,0.263,0.250,0.145,0.086,��쓌,3.1,��
2020/08/23,14:20,0.182,0.168,0.275,0.262,0.250,0.144,0.087,�쓌,3.5,��
2020/08/23,14:30,0.182,0.167,0.277,0.263,0.249,0.143,0.085,��쓌,3.8,��
2020/08/23,14:40,0.182,0.167,0.277,0.262,0.252,0.144,0.086,��쓌,4.1,��
2020/08/23,14:50,0.182,0.167,0.276,0.262,0.251,0.144,0.087,��쓌,4.3,��
2020/08/23,15:00,0.182,0.167,0.276,0.262,0.251,0.143,0.086,��쓌,4.0,��
2020/08/23,15:10,0.183,0.167,0.275,0.264,0.250,0.143,0.087,��쓌,4.2,��
2020/08/23,15:20,0.182,0.167,0.276,0.263,0.250,0.143,0.086,��쓌,4.1,��
2020/08/23,15:30,0.183,0.167,0.276,0.263,0.250,0.143,0.086,��쓌,5.3,��
2020/08/23,15:40,0.183,0.166,0.277,0.263,0.248,0.144,0.086,��쓌,4.7,��
2020/08/23,15:50,0.183,0.167,0.277,0.262,0.250,0.143,0.086,��쓌,4.9,��
2020/08/23,16:00,0.183,0.167,0.276,0.261,0.250,0.144,0.086,��쓌,5.3,��
2020/08/23,16:10,0.183,0.166,0.274,0.260,0.250,0.143,0.085,��쓌,4.8,��
2020/08/23,16:20,0.182,0.166,0.276,0.260,0.250,0.143,0.085,��쓌,4.9,��
2020/08/23,16:30,0.182,0.166,0.278,0.265,0.250,0.144,0.086,��쓌,5.1,��
2020/08/23,16:40,0.182,0.167,0.281,0.265,0.250,0.143,0.086,��쓌,5.9,��
2020/08/23,16:50,0.181,0.168,0.277,0.263,0.251,0.143,0.086,��쓌,5.4,��
2020/08/23,17:00,0.180,0.167,0.276,0.262,0.250,0.143,0.085,��쓌,5.9,��
2020/08/23,17:10,0.182,0.166,0.276,0.261,0.249,0.144,0.086,��쓌,6.2,��
2020/08/23,17:20,0.184,0.167,0.276,0.265,0.249,0.145,0.087,��쓌,6.4,��
2020/08/23,17:30,0.183,0.167,0.280,0.264,0.249,0.143,0.086,��쓌,5.6,��
2020/08/23,17:40,0.182,0.167,0.279,0.263,0.249,0.142,0.085,��쓌,6.1,��
2020/08/23,17:50,0.180,0.168,0.276,0.260,0.248,0.143,0.086,��쓌,5.9,��
2020/08/23,18:00,0.183,0.167,0.276,0.265,0.252,0.142,0.086,��쓌,5.9,��
2020/08/23,18:10,0.183,0.167,0.280,0.265,0.251,0.144,0.086,��쓌,4.6,��
2020/08/23,18:20,0.183,0.167,0.277,0.261,0.249,0.143,0.085,��쓌,3.4,��
2020/08/23,18:30,0.180,0.167,0.275,0.263,0.250,0.144,0.086,��쓌,4.3,��
2020/08/23,18:40,0.183,0.166,0.279,0.265,0.253,0.144,0.086,��쓌,4.6,��
2020/08/23,18:50,0.183,0.167,0.278,0.264,0.251,0.143,0.086,��쓌,3.6,��
2020/08/23,19:00,0.181,0.167,0.275,0.261,0.249,0.143,0.086,��쓌,3.3,��
2020/08/23,19:10,0.182,0.167,0.277,0.264,0.250,0.143,0.086,��쓌,3.3,��
2020/08/23,19:20,0.183,0.168,0.278,0.265,0.253,0.144,0.086,��쓌,4.0,��
2020/08/23,19:30,0.182,0.168,0.277,0.261,0.250,0.143,0.086,��쓌,3.5,��
2020/08/23,19:40,0.181,0.167,0.276,0.264,0.249,0.142,0.086,��쓌,2.5,��
2020/08/23,19:50,0.182,0.166,0.277,0.264,0.253,0.144,0.087,��쓌,2.6,��
2020/08/23,20:00,0.184,0.168,0.278,0.263,0.252,0.143,0.085,��,2.1,��
2020/08/23,20:10,0.182,0.168,0.275,0.262,0.250,0.143,0.086,��쓌,2.3,��
2020/08/23,20:20,0.181,0.166,0.278,0.264,0.247,0.143,0.087,��쓌,3.3,��
2020/08/23,20:30,0.182,0.168,0.278,0.264,0.251,0.145,0.087,��쓌,2.4,��
2020/08/23,20:40,0.183,0.168,0.276,0.263,0.252,0.144,0.085,��,2.9,��
2020/08/23,20:50,0.182,0.166,0.275,0.261,0.249,0.143,0.085,��쓌,1.6,��
2020/08/23,21:00,0.180,0.165,0.279,0.264,0.248,0.143,0.086,��,1.7,��
2020/08/23,21:10,0.183,0.168,0.279,0.264,0.252,0.143,0.086,��,1.6,��
2020/08/23,21:20,0.184,0.168,0.277,0.262,0.253,0.144,0.086,��,1.5,��
2020/08/23,21:30,0.182,0.166,0.275,0.261,0.250,0.143,0.086,��,1.4,��
2020/08/23,21:40,0.181,0.166,0.280,0.265,0.248,0.142,0.087,��,1.6,��
2020/08/23,21:50,0.182,0.170,0.278,0.263,0.251,0.144,0.086,��쐼,1.3,��
2020/08/23,22:00,0.183,0.168,0.275,0.262,0.252,0.144,0.087,��,1.9,��
2020/08/23,22:10,0.183,0.167,0.277,0.260,0.249,0.144,0.085,��,1.7,��
2020/08/23,22:20,0.181,0.167,0.279,0.266,0.249,0.143,0.086,��,1.7,��
2020/08/23,22:30,0.183,0.169,0.277,0.263,0.250,0.144,0.086,��,0.7,��
2020/08/23,22:40,0.184,0.168,0.275,0.262,0.252,0.144,0.086,��,1.2,��
2020/08/23,22:50,0.182,0.167,0.277,0.265,0.251,0.145,0.086,��쓌,1.1,��
2020/08/23,23:00,0.182,0.168,0.278,0.265,0.249,0.142,0.087,��쓌,0.9,��
2020/08/23,23:10,0.185,0.167,0.277,0.262,0.252,0.144,0.086,-,CALM,��
2020/08/23,23:20,0.183,0.166,0.278,0.264,0.254,0.144,0.086,-,CALM,��
2020/08/23,23:30,0.182,0.168,0.280,0.265,0.250,0.143,0.087,-,CALM,��
2020/08/23,23:40,0.183,0.168,0.277,0.262,0.249,0.145,0.087,-,CALM,��
2020/08/23,23:50,0.185,0.167,0.275,0.262,0.253,0.145,0.086,-,CALM,��
